Tracking 30105 objects as of 24-Jan-2025
HD Live streaming from Space Station
objects crossing your sky now

STARLINK-6229

Track STARLINK-6229 now!
10-day predictions
STARLINK-6229 is classified as:


NORAD ID: 57093
Int'l Code: 2023-088AX
Perigee: 565.1 km
Apogee: 567.4 km
Inclination: 43.0 °
Period: 95.8 minutes
Semi major axis: 6937 km
RCS: Unknown
Launch date: June 22, 2023
Source: United States (US)
Launch site: AIR FORCE WESTERN TEST RANGE (AFWTR)
Your satellite tracking list
Your tracking list is empty




NASA's NSSDC Master Catalog

Two Line Element Set (TLE):
1 57093U 23088AX  25024.39399752 -.00000281  00000-0 -57446-5 0  9999
2 57093  43.0018 158.2309 0001706 254.9822 105.0832 15.02525957 88956
Source of the keplerian elements: AFSPC